Location: Killam
(52.7910°N, 111.8608°W)
Time: 01:49:18
(UTC+00:00)

BlueWalker 3 - Visible Passes

Search period start: 29 May 2023 00:00
Search period end: 08 June 2023 00:00
Orbit: 495 x 512 km, 53.2° (Epoch: 28 May)

Date Brightness Start Highest point End Pass type
(mag) Time Alt. Az. Time Alt. Az. Time Alt. Az.
29 May 2.0 05:41:06 10° SW 05:44:52 55° SSE 05:48:41 10° ENE visible
29 May 1.9 07:19:29 10° W 07:23:22 83° N 07:27:17 10° E visible
29 May 1.8 08:58:03 10° WNW 09:01:57 73° SSW 09:05:50 10° ESE visible
30 May 2.0 05:20:46 10° SW 05:24:32 55° SSE 05:28:21 10° ENE visible
30 May 2.0 06:59:09 10° W 07:03:02 83° N 07:06:57 10° E visible
30 May 1.8 08:37:43 10° WNW 08:41:37 72° SSW 08:45:30 10° ESE visible
30 May 3.0 10:16:32 10° W 10:19:45 25° SW 10:22:58 10° SSE visible
31 May 2.0 05:00:25 10° SW 05:04:12 56° SSE 05:08:00 10° ENE visible
31 May 2.0 06:38:48 10° W 06:42:41 83° N 06:46:36 10° E visible
31 May 1.8 08:17:24 10° WNW 08:21:16 71° SSW 08:25:09 10° ESE visible
31 May 3.0 09:56:12 10° W 09:59:24 24° SW 10:02:36 10° SSE visible
01 Jun 2.0 04:40:04 10° SW 04:43:50 57° SSE 04:47:40 10° ENE visible
01 Jun 2.0 06:18:28 10° W 06:22:21 83° N 06:26:15 10° E visible
01 Jun 1.8 07:57:03 10° WNW 08:00:54 71° SSW 08:04:48 10° ESE visible
01 Jun 3.0 09:35:53 10° W 09:39:02 24° SW 09:42:12 10° SSE visible
02 Jun 2.0 05:58:07 10° W 06:01:59 83° N 06:05:54 10° E visible
02 Jun 1.8 07:36:41 10° WNW 07:40:33 70° SSW 07:44:26 10° ESE visible
02 Jun 3.1 09:15:32 10° W 09:18:40 23° SW 09:21:48 10° SSE visible
03 Jun 2.0 05:37:45 10° W 05:41:38 83° N 05:45:32 10° E visible
03 Jun 1.8 07:16:20 10° WNW 07:20:11 69° SSW 07:24:04 10° ESE visible
03 Jun 3.1 08:55:11 10° W 08:58:17 23° SW 08:59:41 19° S visible
04 Jun 2.0 05:17:24 10° W 05:21:15 83° N 05:25:10 10° E visible
04 Jun 1.8 06:55:58 10° WNW 06:59:49 68° SSW 07:03:41 10° ESE visible
04 Jun 3.1 08:34:51 10° W 08:37:55 22° SW 08:38:18 22° SSW visible
05 Jun 2.0 04:57:02 10° W 05:00:53 83° N 05:04:47 10° E visible
05 Jun 1.9 06:35:36 10° WNW 06:39:26 67° SSW 06:42:55 12° ESE visible
05 Jun 3.2 08:14:29 10° W 08:17:31 22° SW 08:17:32 22° SW visible
06 Jun 2.0 04:36:39 10° W 04:40:30 83° N 04:44:24 10° E visible
06 Jun 1.9 06:15:13 10° WNW 06:19:03 66° SSW 06:22:26 13° ESE visible
06 Jun 3.3 07:54:07 10° W 07:57:04 21° SW 07:57:04 21° SW visible
07 Jun 1.9 05:54:49 10° WNW 05:58:40 65° SSW 06:02:06 13° ESE visible
07 Jun 3.3 07:33:45 10° W 07:36:43 21° SW 07:36:45 21° SW visible
